Lid_Strength_Index
22 22 22 21 21 21 20 20 18 18 17 17 17 16 16 16 16 14 15 14 12 10
23 23 23 22 21 21 20 19 18 18 18 18 17 16 16 16 17 16 16 15 15 14
23 23 22 22 22 21 21 20 19 19 18 18 17 17 17 16 16 16 16 14 15 13
23 23 23 23 22 22 21 20 20 19 19 18 18 17 17 17 17 17 16 16 16 15
24 23 23 23 22 22 22 21 20 19 19 19 19 18 18 18 16 16 17 17 16 15
24 24 24 23 23 22 22 21 21 20 21 20 19 19 18 17 16 16 17 17 17 16
25 24 24 24 23 23 23 22 22 22 21 21 20 19 17 16 16 17 17 17 16 16
25 25 24 24 24 24 23 23 23 22 22 22 20 18 17 17 17 17 18 17 16 15
26 25 25 25 25 25 25 24 24 23 22 22 19 16 15 15 16 16 16 15 15 14
27 27 27 27 27 27 26 25 24 23 23 22 20 17 16 15 16 16 16 15 15 14
28 28 28 28 28 27 26 25 24 24 22 21 20 18 16 15 16 15 15 15 15 14
29 30 30 31 29 27 26 26 25 23 22 22 22 18 16 16 16 15 14 14 14 14
29 31 31 30 29 27 27 25 24 23 21 21 22 18 16 16 16 15 15 14 14 13
30 32 31 29 28 28 27 25 25 22 20 20 19 20 17 15 15 16 16 15 14 14